Powrót do katalogu

DELTA 1 DEB

AktywnyLEO
NORAD 7130·DEBRIS·🇺🇸 United States

Wystrzelony Nov 6, 1973 z Vandenberg Space Force Base

Loading…

Następne Przeloty (najbliższe 24 godziny)

TLE

ŚwieżeSource: Space-Track

Epoka: Sep 14, 2026, 09:03 UTC

1 07130U 73086CU  26257.37761074  .00005569  00000-0  92054-2 0  9999
2 07130 102.4025  57.7558 0049472 161.1209 230.1328 13.46987466473872

Śledź DELTA 1 DEB w czasie rzeczywistym z AllMySat

Download on the App Store